Weather History for FENTRESS NALF, VA

Change the Weather History Date:

Tuesday, March 18, 2014

  Actual Average (KORF) Record (KORF)
Temperature  
Mean Temperature 44 °F 50 °F  
Max Temperature 46 °F 59 °F 83 °F (2011)
Min Temperature 41 °F 41 °F 24 °F (1941)
Degree Days  
Heating Degree Days 22 15  
Month to date heating degree days 319  
Since 1 July heating degree days 2888  
Cooling Degree Days 0 0  
Month to date cooling degree days 0  
Year to date cooling degree days 1  
Moisture  
Dew Point 38 °F    
Average Humidity 79    
Maximum Humidity 82    
Minimum Humidity 73    
Precipitation  
Precipitation 0.34 in 0.12 in 1.26 in (1892)
Month to date precipitation 2.15  
Year to date precipitation 8.67  
Snow  
Snow 0.00 in 0.00 in 0.00 in (2002)
Month to date snowfall 0.2  
Since 1 July snowfall 5.8  
Snow Depth -    
Sea Level Pressure  
Sea Level Pressure 30.04 in    
Wind  
Wind Speed 17 mph (NNE)    
Max Wind Speed 24 mph    
Max Gust Speed 34 mph    
Visibility 5 miles    
Events Rain    
T = Trace of Precipitation, MM = Missing Value Source: NWS Daily Summary

Daily Weather History Graph

Daily Weather History Graph

Search for Another Location

Airport:

Trip Planner

Search our weather history database for the weather conditions in past years. The results will help you decide how hot, cold, wet, or windy it might be!

Date:

Astronomy

Mar. 18, 2014 Rise Set
Actual Time 7:11 AM EDT 7:14 PM EDT
Civil Twilight 6:45 AM EDT 7:40 PM EDT
Nautical Twilight 6:15 AM EDT 8:10 PM EDT
Astronomical Twilight 5:44 AM EDT 8:40 PM EDT
Moon 9:25 PM EDT (3/18) 8:02 AM EDT (3/18)
Length of Visible Light 12h 55m
Length of Day
12h 03m
Waning Gibbous, 96% of the Moon is Illuminated
Mar 18
Waning Gibbous
Mar 23
Last Quarter
Mar 30
New
Apr 7
First Quarter
Apr 15
Full

Hourly Weather History & Observations

Time (EDT) Temp. Windchill Dew Point Humidity Pressure Visibility Wind Dir Wind Speed Gust Speed Precip Events Conditions
12:56 AM 41.0 °F 33.1 °F 35.1 °F 79% 29.97 in 10.0 mi NNE 15.0 mph - 0.01 in Rain Light Rain
1:56 AM 41.0 °F 33.5 °F 36.0 °F 82% 29.98 in 9.0 mi NNE 13.8 mph - 0.01 in Rain Light Rain
2:56 AM 42.1 °F 34.2 °F 36.0 °F 79% 29.97 in 7.0 mi NNE 16.1 mph 21.9 mph 0.01 in Rain Light Rain
3:56 AM 42.1 °F 34.5 °F 37.0 °F 82% 29.95 in 5.0 mi NNE 15.0 mph - 0.04 in Rain Light Rain
4:56 AM 42.1 °F 35.2 °F 37.0 °F 82% 29.97 in 8.0 mi North 12.7 mph 26.5 mph 0.00 in Rain Light Rain
5:56 AM 42.1 °F 34.9 °F 37.0 °F 82% 29.97 in 5.0 mi NNE 13.8 mph 21.9 mph 0.04 in Rain Light Rain
6:56 AM 43.0 °F 36.4 °F 37.0 °F 80% 29.99 in 5.0 mi North 12.7 mph 23.0 mph 0.00 in Rain Light Rain
7:20 AM 43.0 °F 36.0 °F 37.0 °F 80% 29.99 in 2.5 mi NNE 13.8 mph 24.2 mph 0.03 in Rain Rain
7:47 AM 43.0 °F 35.1 °F 37.0 °F 80% 29.98 in 4.0 mi North 17.3 mph 25.3 mph 0.05 in Rain Light Rain
7:56 AM 43.0 °F 34.8 °F 37.0 °F 80% 29.97 in 5.0 mi North 18.4 mph 25.3 mph 0.05 in Rain Light Rain
8:39 AM 43.0 °F 35.4 °F 37.9 °F 82% 29.98 in 2.0 mi NNE 16.1 mph 26.5 mph 0.00 in Rain Light Rain
8:56 AM 43.0 °F 35.4 °F 37.9 °F 82% 29.98 in 2.5 mi NNE 16.1 mph 28.8 mph 0.01 in Rain Light Rain
9:56 AM 44.1 °F 37.1 °F 39.0 °F 82% 29.98 in 2.0 mi NNE 15.0 mph 32.2 mph 0.01 in Rain Light Rain
10:23 AM 45.0 °F 37.4 °F 39.0 °F 80% 29.99 in 3.0 mi NNE 18.4 mph 28.8 mph 0.01 in Rain Light Rain
10:56 AM 45.0 °F 37.1 °F 39.0 °F 80% 30.00 in 4.0 mi North 19.6 mph 31.1 mph 0.01 in Rain Light Rain
11:56 AM 45.0 °F 37.6 °F 39.0 °F 80% 30.00 in 2.5 mi North 17.3 mph 26.5 mph 0.01 in Rain Light Rain
12:20 PM 45.0 °F 37.6 °F 39.0 °F 80% 30.01 in 1.5 mi North 17.3 mph 29.9 mph 0.01 in Rain Light Rain
12:56 PM 46.0 °F 39.3 °F 39.9 °F 79% 30.02 in 1.2 mi NNE 16.1 mph 27.6 mph 0.02 in Rain Light Rain
1:56 PM 45.0 °F 37.1 °F 39.9 °F 82% 30.01 in 1.2 mi NNE 19.6 mph 31.1 mph 0.03 in Rain Light Rain
2:56 PM 45.0 °F 36.6 °F 39.0 °F 80% 30.03 in 1.5 mi North 21.9 mph 34.5 mph 0.01 in Rain Light Rain
3:56 PM 45.0 °F 36.6 °F 39.0 °F 80% 30.06 in 2.0 mi NNE 21.9 mph 29.9 mph 0.02 in Rain Light Rain
4:06 PM 45.0 °F 37.4 °F 39.0 °F 80% 30.05 in 1.2 mi North 18.4 mph 27.6 mph 0.01 in Rain Light Rain
4:16 PM 45.0 °F 36.4 °F 39.0 °F 80% 30.05 in 1.8 mi North 23.0 mph 32.2 mph 0.01 in Rain Light Rain
4:51 PM 44.6 °F 36.1 °F 39.2 °F 81% 30.06 in 1.8 mi North 21.9 mph 31.1 mph 0.04 in Rain Light Rain
4:56 PM 45.0 °F 36.2 °F 39.0 °F 80% 30.06 in 1.8 mi North 24.2 mph 31.1 mph 0.04 in Rain Light Rain
4:59 PM 45.0 °F 37.4 °F 39.0 °F 80% 30.06 in 1.8 mi North 18.4 mph 31.1 mph 0.00 in Rain Light Rain
5:04 PM 45.0 °F 36.2 °F 39.0 °F 80% 30.06 in 2.0 mi NNE 24.2 mph 33.4 mph 0.01 in Rain Light Rain
5:37 PM 44.1 °F 35.9 °F 37.9 °F 79% 30.08 in 2.5 mi North 19.6 mph 28.8 mph 0.02 in Rain Light Rain
5:44 PM 45.0 °F 36.9 °F 37.9 °F 76% 30.08 in 3.0 mi North 20.7 mph 31.1 mph 0.02 in Rain Light Rain
5:53 PM 44.6 °F 36.1 °F 37.4 °F 76% 30.08 in 4.0 mi North 21.9 mph 33.4 mph 0.02 in Rain Light Rain
5:56 PM 45.0 °F 37.1 °F 37.0 °F 74% 30.09 in 4.0 mi North 19.6 mph 33.4 mph 0.02 in Rain Light Rain
6:03 PM 45.0 °F 37.9 °F 37.0 °F 74% 30.09 in 6.0 mi NNE 16.1 mph 29.9 mph 0.00 in Rain Light Rain
6:56 PM 44.1 °F 35.2 °F 36.0 °F 73% 30.11 in 10.0 mi NNE 23.0 mph 34.5 mph 0.00 in   Overcast
7:56 PM 44.1 °F 35.9 °F 36.0 °F 73% 30.11 in 10.0 mi NNE 19.6 mph 33.4 mph N/A   Overcast
8:56 PM 44.1 °F 36.8 °F 36.0 °F 73% 30.14 in 10.0 mi NNE 16.1 mph 25.3 mph N/A   Overcast
9:56 PM 44.1 °F 36.2 °F 36.0 °F 73% 30.13 in 10.0 mi NNE 18.4 mph 32.2 mph N/A   Overcast
10:56 PM 45.0 °F 38.2 °F 37.0 °F 74% 30.14 in 10.0 mi NNE 15.0 mph 24.2 mph N/A   Overcast
11:14 PM 45.0 °F 37.6 °F 37.0 °F 74% 30.12 in 10.0 mi NNE 17.3 mph 26.5 mph N/A   Overcast
11:56 PM 45.0 °F 38.9 °F 37.0 °F 74% 30.13 in 10.0 mi NNE 12.7 mph 18.4 mph N/A   Overcast